When you browse on this site, cookies collect data to enhance your experience and personalize the content and advertising you see.
Visit our Privacy Policy to learn more. By continuing to use the site, you agree to this use of cookies and data.

Stündliche Wetter El Llano

Heute, 14 Juli, Dienstag

Zeit Temperatur Niederschläge Wind Luftdruck Luftfeuchtigkeit
00:00 +13°C° 0 mm 0 m/S 593 mmHg 83%
01:00 +13°C° 0 mm 0 m/S 593 mmHg 83%
02:00 +12°C° 0 mm 0 m/S 592 mmHg 84%
03:00 +12°C° 0 mm 0 m/S 592 mmHg 84%
04:00 +12°C° 0 mm 0 m/S 592 mmHg 83%
05:00 +13°C° 0 mm 1 m/S 592 mmHg 82%
06:00 +14°C° 0 mm 0 m/S 593 mmHg 74%
07:00 +16°C° 0 mm 0 m/S 595 mmHg 66%
08:00 +19°C° 0 mm 0 m/S 596 mmHg 58%
09:00 +22°C° 0 mm 1 m/S 596 mmHg 52%
10:00 +24°C° 0 mm 1 m/S 597 mmHg 46%
11:00 +26°C° 0 mm 2 m/S 597 mmHg 40%
12:00 +26°C° 0 mm 2 m/S 597 mmHg 39%
13:00 +27°C° 0 mm 3 m/S 597 mmHg 39%
14:00 +28°C° 0 mm 4 m/S 597 mmHg 38%
15:00 +26°C° 0.6 mm 4 m/S 596 mmHg 46%
16:00 +25°C° 0.6 mm 5 m/S 595 mmHg 54%
17:00 +22°C° 0.6 mm 5 m/S 595 mmHg 62%
18:00 +21°C° 0.7 mm 4 m/S 594 mmHg 71%
19:00 +19°C° 0.7 mm 3 m/S 594 mmHg 79%
20:00 +18°C° 0.7 mm 1 m/S 594 mmHg 87%
21:00 +18°C° 0.1 mm 1 m/S 594 mmHg 89%
22:00 +16°C° 0.1 mm 1 m/S 594 mmHg 91%
23:00 +15°C° 0.1 mm 0 m/S 594 mmHg 92%

Morgen, 15 Juli, Mittwoch

Zeit Temperatur Niederschläge Wind Luftdruck Luftfeuchtigkeit
00:00 +14°C° 0 mm 0 m/S 594 mmHg 93%
01:00 +14°C° 0 mm 0 m/S 593 mmHg 93%
02:00 +14°C° 0 mm 0 m/S 593 mmHg 93%
03:00 +14°C° 0 mm 0 m/S 593 mmHg 93%
04:00 +13°C° 0 mm 0 m/S 593 mmHg 93%
05:00 +13°C° 0 mm 0 m/S 593 mmHg 93%
06:00 +15°C° 0 mm 0 m/S 594 mmHg 86%
07:00 +17°C° 0 mm 0 m/S 595 mmHg 78%
08:00 +19°C° 0 mm 0 m/S 596 mmHg 70%
09:00 +23°C° 0.1 mm 1 m/S 596 mmHg 64%
10:00 +24°C° 0.1 mm 1 m/S 597 mmHg 58%
11:00 +26°C° 0.1 mm 2 m/S 597 mmHg 51%
12:00 +26°C° 0.3 mm 3 m/S 597 mmHg 50%
13:00 +26°C° 0.3 mm 3 m/S 596 mmHg 48%
14:00 +26°C° 0.3 mm 4 m/S 596 mmHg 47%
15:00 +25°C° 0.9 mm 4 m/S 595 mmHg 53%
16:00 +23°C° 0.9 mm 4 m/S 595 mmHg 60%
17:00 +22°C° 0.9 mm 4 m/S 594 mmHg 67%
18:00 +20°C° 1.2 mm 3 m/S 594 mmHg 72%
19:00 +19°C° 1.2 mm 2 m/S 594 mmHg 78%
20:00 +19°C° 1.2 mm 1 m/S 594 mmHg 84%
21:00 +18°C° 0.4 mm 1 m/S 594 mmHg 86%
22:00 +16°C° 0.4 mm 1 m/S 594 mmHg 89%
23:00 +16°C° 0.4 mm 1 m/S 594 mmHg 92%

übermorgen, 16 Juli, Donnerstag

Zeit Temperatur Niederschläge Wind Luftdruck Luftfeuchtigkeit
00:00 +15°C° 0 mm 1 m/S 594 mmHg 93%
01:00 +14°C° 0 mm 0 m/S 593 mmHg 94%
02:00 +14°C° 0 mm 0 m/S 593 mmHg 95%
03:00 +14°C° 0 mm 0 m/S 593 mmHg 95%
04:00 +14°C° 0 mm 0 m/S 593 mmHg 95%
05:00 +14°C° 0 mm 0 m/S 594 mmHg 95%
06:00 +15°C° 0 mm 0 m/S 594 mmHg 89%
07:00 +16°C° 0 mm 0 m/S 595 mmHg 84%
08:00 +17°C° 0 mm 0 m/S 596 mmHg 78%
09:00 +21°C° 0.2 mm 1 m/S 596 mmHg 70%
10:00 +23°C° 0.2 mm 2 m/S 597 mmHg 62%
11:00 +25°C° 0.2 mm 2 m/S 597 mmHg 55%
12:00 +25°C° 0.1 mm 3 m/S 597 mmHg 52%
13:00 +26°C° 0.1 mm 5 m/S 597 mmHg 50%
14:00 +26°C° 0.1 mm 6 m/S 597 mmHg 48%
15:00 +24°C° 1.2 mm 6 m/S 596 mmHg 56%
16:00 +22°C° 1.2 mm 6 m/S 595 mmHg 65%
17:00 +21°C° 1.2 mm 5 m/S 594 mmHg 73%
18:00 +19°C° 1.1 mm 4 m/S 594 mmHg 78%
19:00 +18°C° 1.1 mm 3 m/S 594 mmHg 84%
20:00 +16°C° 1.1 mm 2 m/S 594 mmHg 90%
21:00 +16°C° 0.1 mm 2 m/S 594 mmHg 91%
22:00 +15°C° 0.1 mm 1 m/S 594 mmHg 92%
23:00 +15°C° 0.1 mm 1 m/S 594 mmHg 94%

17 Juli, Freitag

Zeit Temperatur Niederschläge Wind Luftdruck Luftfeuchtigkeit
00:00 +14°C° 0 mm 1 m/S 594 mmHg 95%
01:00 +13°C° 0 mm 0 m/S 594 mmHg 95%
02:00 +13°C° 0 mm 0 m/S 593 mmHg 96%
03:00 +13°C° 0 mm 0 m/S 594 mmHg 94%
04:00 +13°C° 0 mm 0 m/S 594 mmHg 93%
05:00 +14°C° 0 mm 0 m/S 594 mmHg 91%
06:00 +14°C° 0 mm 0 m/S 595 mmHg 86%
07:00 +15°C° 0 mm 0 m/S 595 mmHg 81%
08:00 +16°C° 0 mm 0 m/S 596 mmHg 75%
09:00 +20°C° 0 mm 1 m/S 596 mmHg 68%
10:00 +22°C° 0 mm 1 m/S 597 mmHg 61%
11:00 +23°C° 0 mm 1 m/S 597 mmHg 54%
12:00 +24°C° 0.1 mm 2 m/S 597 mmHg 50%
13:00 +25°C° 0.1 mm 3 m/S 597 mmHg 46%
14:00 +26°C° 0.1 mm 4 m/S 596 mmHg 42%
15:00 +23°C° 0.5 mm 4 m/S 596 mmHg 50%
16:00 +22°C° 0.5 mm 5 m/S 595 mmHg 57%
17:00 +20°C° 0.5 mm 5 m/S 594 mmHg 65%
18:00 +19°C° 0.6 mm 4 m/S 594 mmHg 72%
19:00 +17°C° 0.6 mm 2 m/S 594 mmHg 78%
20:00 +16°C° 0.6 mm 1 m/S 594 mmHg 84%
21:00 +16°C° 0.3 mm 1 m/S 594 mmHg 84%
22:00 +16°C° 0.3 mm 1 m/S 594 mmHg 84%
23:00 +15°C° 0.3 mm 1 m/S 594 mmHg 84%

18 Juli, Samstag

Zeit Temperatur Niederschläge Wind Luftdruck Luftfeuchtigkeit
00:00 +15°C° 0.1 mm 1 m/S 594 mmHg 84%
01:00 +15°C° 0.1 mm 1 m/S 594 mmHg 84%
02:00 +14°C° 0.1 mm 0 m/S 594 mmHg 84%
03:00 +14°C° 0 mm 0 m/S 594 mmHg 84%
04:00 +14°C° 0 mm 0 m/S 594 mmHg 84%
05:00 +14°C° 0 mm 0 m/S 594 mmHg 84%
06:00 +15°C° 0 mm 0 m/S 594 mmHg 78%
07:00 +16°C° 0 mm 0 m/S 595 mmHg 72%
08:00 +17°C° 0 mm 0 m/S 596 mmHg 67%
09:00 +21°C° 0.3 mm 1 m/S 596 mmHg 61%
10:00 +21°C° 0.3 mm 2 m/S 596 mmHg 55%
11:00 +24°C° 0.3 mm 3 m/S 597 mmHg 49%
12:00 +23°C° 0.3 mm 4 m/S 596 mmHg 48%
13:00 +25°C° 0.3 mm 5 m/S 596 mmHg 46%
14:00 +25°C° 0.3 mm 5 m/S 596 mmHg 45%
15:00 +23°C° 0.3 mm 6 m/S 595 mmHg 52%
16:00 +21°C° 0.3 mm 6 m/S 594 mmHg 59%
17:00 +20°C° 0.3 mm 6 m/S 594 mmHg 66%
18:00 +18°C° 0.1 mm 4 m/S 594 mmHg 71%
19:00 +17°C° 0.1 mm 3 m/S 594 mmHg 77%
20:00 +15°C° 0.1 mm 2 m/S 594 mmHg 82%
21:00 +15°C° 0 mm 1 m/S 594 mmHg 85%
22:00 +14°C° 0 mm 1 m/S 594 mmHg 88%
23:00 +14°C° 0 mm 1 m/S 594 mmHg 92%

19 Juli, Sonntag

Zeit Temperatur Niederschläge Wind Luftdruck Luftfeuchtigkeit
00:00 +13°C° 0 mm 1 m/S 593 mmHg 92%
01:00 +12°C° 0 mm 0 m/S 593 mmHg 92%
02:00 +12°C° 0 mm 0 m/S 593 mmHg 93%
03:00 +12°C° 0 mm 0 m/S 593 mmHg 93%
04:00 +12°C° 0 mm 0 m/S 593 mmHg 93%
05:00 +11°C° 0 mm 0 m/S 593 mmHg 93%
06:00 +13°C° 0 mm 0 m/S 593 mmHg 85%
07:00 +15°C° 0 mm 0 m/S 594 mmHg 77%
08:00 +17°C° 0 mm 0 m/S 595 mmHg 68%
09:00 +21°C° 0 mm 1 m/S 596 mmHg 61%
10:00 +23°C° 0 mm 2 m/S 596 mmHg 54%
11:00 +24°C° 0 mm 2 m/S 597 mmHg 47%
12:00 +25°C° 0.1 mm 3 m/S 596 mmHg 46%
13:00 +25°C° 0.1 mm 4 m/S 596 mmHg 45%
14:00 +26°C° 0.1 mm 5 m/S 596 mmHg 44%
15:00 +23°C° 0.3 mm 5 m/S 595 mmHg 52%
16:00 +22°C° 0.3 mm 5 m/S 595 mmHg 60%
17:00 +21°C° 0.3 mm 5 m/S 594 mmHg 68%
18:00 +19°C° 0.5 mm 4 m/S 594 mmHg 75%
19:00 +18°C° 0.5 mm 3 m/S 594 mmHg 83%
20:00 +16°C° 0.5 mm 2 m/S 594 mmHg 90%
21:00 +16°C° 0 mm 2 m/S 593 mmHg 92%
22:00 +15°C° 0 mm 1 m/S 593 mmHg 94%
23:00 +14°C° 0 mm 1 m/S 593 mmHg 95%
Mehr zeigen